星链-32881 (STARLINK-32881)

导读

STARLINK-32881是由美国于2025年2月11日发射的星链系列卫星,归属SpaceX星链项目。星链项目旨在构建全球卫星互联网星座,为全球偏远地区、海洋等传统网络覆盖盲区提供高速宽带互联服务,该卫星入轨后将补充星链星座的通信服务能力,提升星座覆盖密度与服务稳定性。

Basic Information
目录编号:
62997
目录名称:
STARLINK-32881
国际标识:
2025-031S
轨道中心:
EARTH
卫星名称:
星链-32881
卫星全名:
星链-32881 (STARLINK-32881)
卫星状态:
在轨 (已飞行570 天)
发射日期:
2025-02-11 UTC
国别 :
美国 (US)
星等 :
--
Orbit Information
数据来源 国际轨道数据
星历时间: 2026-09-04T13:38:33+0800
10小时前
查看轨道信息
半长轴: 6861.151km
偏心率: 0.0001508
轨道倾角: 43.003°
近地点辐角 262.402°
升交点赤经 214.813°
平近点角 97.666°
近地点: 481.979km
远地点: 484.049km
周期: 94.266分钟
每日圈数: 15.27592
Detailed Information
固有亮度:
5
最大亮度:
2.5
卫星平台:
Starlink V1.0
覆盖范围:
全球
运营商:
太空探索技术公司
运营商所在国:
美国
制造商(研发单位):
太空探索技术公司
制造商所在国:
美国
使用方式:
暂无
Satellite Introduction
Starlink 计划是 SpaceX 推出的全球卫星互联网项目,通过发射低轨道卫星,为全球尤其是偏远地区提供高速、低延迟的互联网服务。自 2019 年起,Starlink 已部署数千颗卫星,旨在缩小全球数字鸿沟,推动互联网普及。该项目还为军事、航空等行业提供通信支持,带来广泛经济效益。
2D Orbit Map
3D Orbit Map
Orbit Altitude Analysis Chart
Orbit Inclination Analysis Chart
Orbit Comprehensive Analysis Chart
View Comprehensive Chart
Conjunction Data List
Event ID Objects TCA Miss Dist (km) Collision Risk Probability Collision Risk Index (CRI) Action
CDM_260905-091905-601206-299721
2026-09-05T
09:19:14+0000
0.643 km
远距离
7.211783E-5 中风险 0.72
CDM_260905-223905-601206-299721
2026-09-05T
22:39:34+0000
0.681 km
远距离
6.088118E-5 中风险 0.71
CDM_260905-074505-601206-299721
2026-09-05T
07:45:05+0000
1.085 km
极远距离
1.308685E-5 中风险 0.57
CDM_260829-102306-214706-299721
2026-08-29T
10:23:35+0000
1.031 km
极远距离
5.1484E-6 低风险 0.49
CDM_260906-001305-601206-299721
2026-09-06T
00:13:43+0000
1.625 km
极远距离
3.411441E-6 低风险 0.46
CDM_260906-030706-299706-403421
2026-09-06T
03:07:41+0000
1.892 km
极远距离
3.006565E-6 低风险 0.45
CDM_260905-105305-601206-299721
2026-09-05T
10:53:24+0000
2.363 km
极远距离
1.340028E-6 低风险 0.38
CDM_260829-080206-214706-299721
2026-08-29T
08:02:22+0000
1.646 km
极远距离
1.192339E-6 低风险 0.37
CDM_260905-210505-601206-299722
2026-09-05T
21:05:24+0000
2.648 km
极远距离
1.10433E-6 低风险 0.36
CDM_260905-061005-601206-299721
2026-09-05T
06:10:56+0000
2.724 km
极远距离
1.059202E-6 低风险 0.35